EN

Hourly Weather Akalkot

Today, 24 January, Sunday

Time Temperature Precipitation Wind Pressure Humidity
00:00 +26°C° 0 mm 2 mps 720 mmHg 42%
01:00 +25°C° 0 mm 2 mps 720 mmHg 43%
02:00 +24°C° 0 mm 2 mps 719 mmHg 45%
03:00 +24°C° 0 mm 1 mps 719 mmHg 50%
04:00 +23°C° 0 mm 2 mps 719 mmHg 52%
05:00 +22°C° 0 mm 3 mps 719 mmHg 54%
06:00 +23°C° 0 mm 4 mps 720 mmHg 53%
07:00 +25°C° 0 mm 4 mps 721 mmHg 52%
08:00 +26°C° 0 mm 5 mps 721 mmHg 51%
09:00 +28°C° 0 mm 4 mps 722 mmHg 44%
10:00 +30°C° 0 mm 4 mps 722 mmHg 37%
11:00 +34°C° 0 mm 3 mps 722 mmHg 30%
12:00 +35°C° 0 mm 3 mps 721 mmHg 27%
13:00 +36°C° 0 mm 2 mps 720 mmHg 24%
14:00 +37°C° 0 mm 2 mps 720 mmHg 21%
15:00 +37°C° 0 mm 2 mps 719 mmHg 20%
16:00 +37°C° 0 mm 2 mps 719 mmHg 19%
17:00 +37°C° 0 mm 2 mps 719 mmHg 19%
18:00 +34°C° 0 mm 2 mps 720 mmHg 23%
19:00 +31°C° 0 mm 2 mps 720 mmHg 27%
20:00 +29°C° 0 mm 2 mps 720 mmHg 31%
21:00 +28°C° 0 mm 2 mps 720 mmHg 34%
22:00 +27°C° 0 mm 1 mps 720 mmHg 37%
23:00 +26°C° 0 mm 1 mps 720 mmHg 40%

Tomorrow, 25 January, Monday

Time Temperature Precipitation Wind Pressure Humidity
00:00 +26°C° 0 mm 2 mps 720 mmHg 40%
01:00 +26°C° 0 mm 2 mps 720 mmHg 39%
02:00 +26°C° 0 mm 3 mps 720 mmHg 39%
03:00 +25°C° 0 mm 3 mps 720 mmHg 45%
04:00 +24°C° 0 mm 3 mps 720 mmHg 52%
05:00 +22°C° 0 mm 3 mps 720 mmHg 59%
06:00 +24°C° 0 mm 3 mps 720 mmHg 57%
07:00 +25°C° 0 mm 3 mps 721 mmHg 55%
08:00 +25°C° 0 mm 3 mps 722 mmHg 53%
09:00 +28°C° 0 mm 3 mps 722 mmHg 47%
10:00 +30°C° 0 mm 3 mps 722 mmHg 40%
11:00 +33°C° 0 mm 3 mps 722 mmHg 33%
12:00 +34°C° 0 mm 2 mps 721 mmHg 30%
13:00 +35°C° 0 mm 2 mps 721 mmHg 26%
14:00 +36°C° 0 mm 2 mps 720 mmHg 22%
15:00 +36°C° 0 mm 2 mps 720 mmHg 22%
16:00 +35°C° 0 mm 1 mps 719 mmHg 21%
17:00 +35°C° 0 mm 1 mps 719 mmHg 20%
18:00 +34°C° 0 mm 2 mps 719 mmHg 24%
19:00 +31°C° 0 mm 2 mps 720 mmHg 27%
20:00 +29°C° 0 mm 3 mps 720 mmHg 31%
21:00 +28°C° 0 mm 2 mps 720 mmHg 33%
22:00 +27°C° 0 mm 2 mps 720 mmHg 35%
23:00 +26°C° 0 mm 1 mps 720 mmHg 38%

Day after tomorrow, 26 January, Tuesday

Time Temperature Precipitation Wind Pressure Humidity
00:00 +26°C° 0 mm 2 mps 720 mmHg 40%
01:00 +25°C° 0 mm 3 mps 720 mmHg 41%
02:00 +25°C° 0 mm 3 mps 720 mmHg 43%
03:00 +24°C° 0 mm 3 mps 720 mmHg 48%
04:00 +23°C° 0 mm 4 mps 720 mmHg 52%
05:00 +22°C° 0 mm 4 mps 720 mmHg 57%
06:00 +23°C° 0 mm 4 mps 720 mmHg 54%
07:00 +25°C° 0 mm 3 mps 721 mmHg 51%
08:00 +26°C° 0 mm 3 mps 721 mmHg 49%
09:00 +28°C° 0 mm 3 mps 721 mmHg 41%
10:00 +30°C° 0 mm 3 mps 721 mmHg 34%
11:00 +34°C° 0 mm 3 mps 721 mmHg 27%
12:00 +35°C° 0 mm 3 mps 721 mmHg 24%
13:00 +36°C° 0 mm 3 mps 720 mmHg 21%
14:00 +37°C° 0 mm 3 mps 719 mmHg 18%
15:00 +37°C° 0 mm 3 mps 719 mmHg 18%
16:00 +37°C° 0 mm 3 mps 719 mmHg 17%
17:00 +36°C° 0 mm 3 mps 719 mmHg 17%
18:00 +34°C° 0 mm 3 mps 719 mmHg 19%
19:00 +31°C° 0 mm 3 mps 719 mmHg 22%
20:00 +29°C° 0 mm 3 mps 720 mmHg 24%
21:00 +28°C° 0 mm 3 mps 720 mmHg 27%
22:00 +27°C° 0 mm 2 mps 720 mmHg 29%
23:00 +26°C° 0 mm 2 mps 720 mmHg 32%

27 January, Wednesday

Time Temperature Precipitation Wind Pressure Humidity
00:00 +25°C° 0 mm 2 mps 719 mmHg 32%
01:00 +25°C° 0 mm 2 mps 719 mmHg 32%
02:00 +25°C° 0 mm 3 mps 719 mmHg 33%
03:00 +24°C° 0 mm 3 mps 719 mmHg 35%
04:00 +22°C° 0 mm 3 mps 719 mmHg 37%
05:00 +21°C° 0 mm 3 mps 719 mmHg 40%
06:00 +22°C° 0 mm 3 mps 720 mmHg 38%
07:00 +24°C° 0 mm 3 mps 720 mmHg 37%
08:00 +25°C° 0 mm 3 mps 721 mmHg 36%
09:00 +28°C° 0 mm 2 mps 721 mmHg 31%
10:00 +30°C° 0 mm 2 mps 721 mmHg 25%
11:00 +32°C° 0 mm 1 mps 721 mmHg 20%
12:00 +33°C° 0 mm 1 mps 720 mmHg 18%
13:00 +34°C° 0 mm 1 mps 719 mmHg 17%
14:00 +35°C° 0 mm 1 mps 718 mmHg 15%
15:00 +35°C° 0 mm 1 mps 718 mmHg 15%
16:00 +36°C° 0 mm 2 mps 718 mmHg 14%
17:00 +36°C° 0 mm 2 mps 718 mmHg 14%
18:00 +34°C° 0 mm 2 mps 718 mmHg 16%
19:00 +30°C° 0 mm 3 mps 719 mmHg 19%
20:00 +28°C° 0 mm 3 mps 719 mmHg 21%
21:00 +27°C° 0 mm 3 mps 719 mmHg 23%
22:00 +27°C° 0 mm 3 mps 719 mmHg 25%
23:00 +26°C° 0 mm 3 mps 719 mmHg 27%

28 January, Thursday

Time Temperature Precipitation Wind Pressure Humidity
00:00 +25°C° 0 mm 3 mps 719 mmHg 32%
01:00 +24°C° 0 mm 3 mps 719 mmHg 37%
02:00 +22°C° 0 mm 3 mps 718 mmHg 42%
03:00 +22°C° 0 mm 3 mps 718 mmHg 46%
04:00 +21°C° 0 mm 3 mps 719 mmHg 50%
05:00 +21°C° 0 mm 3 mps 719 mmHg 54%
06:00 +22°C° 0 mm 4 mps 719 mmHg 52%
07:00 +23°C° 0 mm 4 mps 720 mmHg 49%
08:00 +25°C° 0 mm 4 mps 721 mmHg 47%
09:00 +28°C° 0 mm 5 mps 721 mmHg 39%
10:00 +30°C° 0 mm 6 mps 721 mmHg 31%
11:00 +34°C° 0 mm 6 mps 721 mmHg 23%
12:00 +35°C° 0 mm 6 mps 720 mmHg 21%
13:00 +36°C° 0 mm 5 mps 719 mmHg 19%
14:00 +36°C° 0 mm 4 mps 719 mmHg 17%
15:00 +36°C° 0 mm 4 mps 718 mmHg 16%
16:00 +36°C° 0 mm 4 mps 718 mmHg 16%
17:00 +36°C° 0 mm 3 mps 718 mmHg 16%
18:00 +33°C° 0 mm 3 mps 719 mmHg 20%
19:00 +29°C° 0 mm 2 mps 719 mmHg 24%
20:00 +27°C° 0 mm 2 mps 719 mmHg 27%
21:00 +26°C° 0 mm 2 mps 719 mmHg 30%
22:00 +25°C° 0 mm 1 mps 720 mmHg 32%
23:00 +24°C° 0 mm 1 mps 720 mmHg 35%

29 January, Friday

Time Temperature Precipitation Wind Pressure Humidity
Show more

We Need Your Consent

Meteoprog and our Service Providers may store and access personal data such as cookies, device identifiers or other similar technologies on your device and process such data to personalise content and ads, as well as provide social media features and to analyse the traffic.

  • Store and/or access information on your device

    Cookies, device identifiers or other information can be stored or accessed on your device for the purposes indicated above.

  • Personalised ads and content, ad and content measurement, audience insights, and products development

    Ads and content can be personalised based on a profile. More data can be added to better personalise ads and content. Ad and content performance can be measured. Insights about the audience who saw the ads and content can be derived. Such data can be used to develop or improve user’s experience, systems and software.

By clicking ‘I Agree’ you will allow the use of indicated cookies, device identifiers, web beacons or other similar technologies. Your settings can be changed in the browser on your device.

For certain purposes, legitimate interests may be relied on, rather than consent. You can read more about this in our Privacy and Cookie Policy.